Regional Weather Roundup
Issued by NWS Charleston, SC

Current Version | Previous Version | Text Only | Print | Product List | Glossary Off
Versions: 1 2 3 4 5 6 7 8 9 10 11 12 13 14 15 16 17 18 19 20 21 22 23 24 25 26 27 28 29 30 31 32 33 34 35 36 37 38 39 40 41 42 43 44 45 46 47 48 49 50
491 ASUS42 KCHS 311513 RWRCHS REGIONAL WEATHER ROUNDUP NATIONAL WEATHER SERVICE CHARLESTON SC 1100 AM EDT WED AUG 31 2016 NOTE: "FAIR" INDICATES FEW OR NO CLOUDS BELOW 12,000 FEET WITH NO SIGNIFICANT WEATHER AND/OR OBSTRUCTIONS TO VISIBILITY. NOT ALL STATIONS ARE QUALITY CONTROLLED. USE DATA WITH CAUTION... ESPECIALLY DEWPOINT OBSERVATIONS. SCZ027-030-031-034>040-042>050-311600- ...SOUTHEAST SOUTH CAROLINA... CITY SKY/WX TMP DP RH WIND PRES REMARKS N CHARLESTON PTSUNNY 82 73 74 E9 29.98S WATERFRONT PRK N/A 78 74 87 E8 29.95F MOUNT PLEASANT FAIR 77 75 94 E3 29.98R JOHNS ISLAND FAIR 81 75 83 NE14 29.97S PINOPOLIS N/A 79 73 83 VRB2 29.92S MONCKS CORNER FAIR 79 72 78 SE5 29.98F SUMMERVILLE FAIR 84 72 65 E6 29.98F BEAUFORT MCAS PTSUNNY N/A N/A N/A E12 29.95F BEAUFORT ARPT CLOUDY 81 75 83 E13G20 29.95F HILTON HEAD IS MOSUNNY 88 75 66 MISG 29.95F HX 97 WALTERBORO MOSUNNY 86 72 62 E9 29.98S HX 92 ALLENDALE FAIR 84 73 70 E8 29.96F HX 91 ...SOUTHERN MIDLANDS AND PEE DEE... CITY SKY/WX TMP DP RH WIND PRES REMARKS GEORGETOWN FAIR 73 72 94 CALM 30.01S KINGSTREE PTSUNNY 81 70 69 E5 30.00S ORANGEBURG CLOUDY 82 73 74 E8 29.99F BARNWELL NOT AVBL AIKEN PTSUNNY 82 70 65 E8 30.03S MANNING FAIR 82 72 69 N5 29.99F COLUMBIA PTSUNNY 86 70 58 E9 29.99S HX 90 SUMTER PTSUNNY 86 71 60 SE6 29.98S HX 91 FLORENCE CLOUDY 85 70 60 VRB3 30.00S MYRTLE BEACH RAIN 73 64 73 S16 30.04R FOG N MYRTLE BEACH LGT RAIN 78 77 96 CALM 30.00S $$ GAZ063-065-086>088-099>101-113>116-118-119-134>141-150-311600- ...SOUTHEAST GEORGIA... CITY SKY/WX TMP DP RH WIND PRES REMARKS SAVANNAH ARPT PTSUNNY 82 75 79 NE13 29.94S HUNTER AAF PTSUNNY 83 79 87 E9 29.91S HX 93 FORT STEWART PTSUNNY 82 75 78 NE12G18 29.90F STATESBORO CLOUDY 81 75 81 E7 29.96S SYLVANIA NOT AVBL CLAXTON PTSUNNY 83 74 75 NE15 29.94S HX 90 ...CSRA...CENTRAL AND FAR SOUTHEAST GEORGIA... CITY SKY/WX TMP DP RH WIND PRES REMARKS THOMSON MOSUNNY 87 74 66 CALM 30.04S HX 95 AUGUSTA-BUSH MOSUNNY 84 72 67 E10 29.98S AUGUSTA-DANIEL MOSUNNY 86 N/A N/A E7 30.00S SWAINSBORO CLOUDY 82 72 69 E10G17 29.98S VIDALIA CLOUDY 84 77 79 E13 29.95S HX 94 EASTMAN CLOUDY 84 66 54 E7 29.98S HAZLEHURST PTSUNNY 85 76 73 NE5 29.93S HX 94 ALMA CLOUDY 80 74 81 NE7 29.92S WAYCROSS N/A 83 80 89 CALM 29.92S HX 95 JESUP CLOUDY 81 81 100 E10 29.91F HX 91 BAXLEY CLOUDY 82 79 89 NE8G17 29.93S HX 93 BRUNSWICK CLOUDY 84 79 84 SW8 29.91S HX 96 SAINT SIMONS SUNNY 81 75 82 SW12 29.90S $$ SCZ027-028-034-036>038-045-046-048>050-GAZ119-141-311600- ...LAKE AND SUPPLEMENTAL COASTAL OBSERVATIONS... STATION/POSITION TIME TEMP WIND PRES WAVE SWELL AIR SEA DIR/SP/G HT/PER HT/PER/DIR (UTC) (F) (DEG/KT/KT) (MB) (FT/S) (FT/S/D) WINYAH BAY 1345 77 170/ 7 1015.0 LAKE MURRAY 1400 83 30/ 2/ 5 1015.6R ACE BASIN NERRS NOT AVBL FORT PULASKI 1400 81 84 60/ 19/ 21 1014.1R SAPELO ISLAND 1400 80 140/ 7 1013.0R $$ ANZ835-935-AMZ111-154-330-350-352-354-370-450-454-472-311600- ...C-MAN AND BUOY OBSERVATIONS... STATION/POSITION TIME TEMP WIND PRES WAVE SWELL AIR SEA DIR/SP/G HT/PER HT/PER/DIR (UTC) (F) (DEG/KT/KT) (MB) (FT/S) (FT/S/D) BUOY 41004 1450 80 84 120/ 12/ 16 1014.6F 4/ 9 3/100/ 9 BUOY 41008 1450 78 85 120/ 8/ 10 1012.9R 4/ 6 3/130/ 6 FOLLY BEACH CMAN 1400 78 60/ 17/ 19 1014.9F CAPERS NEARSHORE 1408 77 83 70/ 14/ 19 1014.6S FRIPP NEARSHORE 1408 81 85 90/ 14/ 19 1013.3R STATION/POSITION TIME TEMP WIND PRES WAVE SWELL AIR SEA DIR/SP/G HT/PER HT/PER/DIR (UTC) (F) (DEG/KT/KT) (MB) (FT/S) (FT/S/D) 5E ST. MARYS GA 1401 84 N/A 4/11 2/120/11 FRYING PAN BUOY 1400 80 84 190/ 10/ 14 1015.5R BUOY 41025 1450 81 85 360/ 12/ 14 1015.1R 4/11 3/120/11 CAPE LOOKOUT NC 1400 81 340/ 6/ 8 1015.3F BUOY 41002 1450 83 84 180/ 4/ 6 1016.4R 4/11 3/ 50/11 BUOY 41010 NOT AVBL ST AUGUSTINE FL 1500 80 82 200/ 10/ 14 1013.7F $$

USA.gov is the U.S. government's official web portal to all federal, state and local government web resources and services.